Time,TemperatureF,DewpointF,PressureIn,WindDirection,WindDirectionDegrees,WindSpeedMPH,WindSpeedGustMPH,Humidity,HourlyPrecipIn,Conditions,Clouds,dailyrainin,SoftwareType,DateUTC
2013-12-13 00:01:00,19.3,9.1,30.28,WSW,239,2.0,3.0,64,0.00,,CLR,0.00,VWS V13.01,2013-12-13 05:01:00,
2013-12-13 00:02:00,19.3,9.1,30.28,WSW,239,2.0,3.0,64,0.00,,CLR,0.00,VWS V13.01,2013-12-13 05:02:00,
2013-12-13 00:03:00,19.3,9.1,30.28,WSW,239,2.0,3.0,64,0.00,,CLR,0.00,VWS V13.01,2013-12-13 05:03:00,
2013-12-13 00:07:00,19.7,9.2,30.28,WSW,239,1.0,3.0,63,0.00,,CLR,0.00,VWS V13.01,2013-12-13 05:07:00,
2013-12-13 00:12:00,19.9,9.7,30.28,WSW,253,2.0,3.0,64,0.00,,CLR,0.00,VWS V13.01,2013-12-13 05:12:00,
2013-12-13 00:17:00,19.9,9.7,30.28,WSW,253,2.0,3.0,64,0.00,,CLR,0.00,VWS V13.01,2013-12-13 05:17:00,
2013-12-13 00:23:00,20.1,9.9,30.28,WSW,253,1.0,3.0,64,0.00,,CLR,0.00,VWS V13.01,2013-12-13 05:23:00,
2013-12-13 00:28:00,20.1,9.9,30.27,WSW,249,2.0,3.0,64,0.00,,CLR,0.00,VWS V13.01,2013-12-13 05:28:00,
2013-12-13 00:33:00,19.7,9.5,30.27,WSW,258,3.0,4.0,64,0.00,,CLR,0.00,VWS V13.01,2013-12-13 05:33:00,
2013-12-13 00:39:00,19.5,9.7,30.27,WSW,243,0.0,4.0,65,0.00,,CLR,0.00,VWS V13.01,2013-12-13 05:39:00,
2013-12-13 00:44:00,19.5,9.7,30.27,West,268,2.0,3.0,65,0.00,,CLR,0.00,VWS V13.01,2013-12-13 05:44:00,
2013-12-13 00:49:00,19.3,9.5,30.27,West,265,2.0,3.0,65,0.00,,CLR,0.00,VWS V13.01,2013-12-13 05:49:00,
2013-12-13 00:54:00,19.1,9.6,30.26,SW,232,3.0,4.0,66,0.00,,CLR,0.00,VWS V13.01,2013-12-13 05:54:00,
2013-12-13 00:59:00,19.0,9.9,30.26,WSW,240,2.0,4.0,67,0.00,,CLR,0.00,VWS V13.01,2013-12-13 05:59:00,
2013-12-13 01:04:00,19.3,10.1,30.26,WSW,240,1.0,4.0,67,0.00,,CLR,0.00,VWS V13.01,2013-12-13 06:04:00,
2013-12-13 01:10:00,19.5,10.3,30.26,WSW,251,1.0,4.0,67,0.00,,CLR,0.00,VWS V13.01,2013-12-13 06:10:00,
2013-12-13 01:15:00,19.4,10.2,30.25,WSW,251,2.0,3.0,67,0.00,,CLR,0.00,VWS V13.01,2013-12-13 06:15:00,
2013-12-13 01:20:00,19.7,10.5,30.25,SW,214,3.0,4.0,67,0.00,,CLR,0.00,VWS V13.01,2013-12-13 06:20:00,
2013-12-13 01:25:00,20.1,10.9,30.25,WSW,245,3.0,4.0,67,0.00,,CLR,0.00,VWS V13.01,2013-12-13 06:25:00,
2013-12-13 01:30:00,21.0,11.4,30.25,WSW,241,2.0,5.0,66,0.00,,CLR,0.00,VWS V13.01,2013-12-13 06:30:00,
2013-12-13 01:35:00,21.6,11.7,30.25,WSW,247,2.0,5.0,65,0.00,,CLR,0.00,VWS V13.01,2013-12-13 06:35:00,
2013-12-13 01:41:00,22.4,12.1,30.25,SW,236,2.0,5.0,64,0.00,,CLR,0.00,VWS V13.01,2013-12-13 06:41:00,
2013-12-13 01:46:00,22.7,12.0,30.25,West,265,3.0,5.0,63,0.00,,CLR,0.00,VWS V13.01,2013-12-13 06:46:00,
2013-12-13 01:51:00,22.6,11.9,30.25,WSW,249,2.0,9.0,63,0.00,,CLR,0.00,VWS V13.01,2013-12-13 06:51:00,
2013-12-13 01:56:00,22.8,12.1,30.25,WSW,243,3.0,9.0,63,0.00,,CLR,0.00,VWS V13.01,2013-12-13 06:56:00,
2013-12-13 02:01:00,23.0,11.9,30.25,WSW,245,3.0,6.0,62,0.00,,CLR,0.00,VWS V13.01,2013-12-13 07:01:00,
2013-12-13 02:07:00,23.8,12.3,30.25,WSW,237,4.0,7.0,61,0.00,,CLR,0.00,VWS V13.01,2013-12-13 07:07:00,
2013-12-13 02:12:00,24.1,12.2,30.26,SW,232,3.0,6.0,60,0.00,,CLR,0.00,VWS V13.01,2013-12-13 07:12:00,
2013-12-13 02:17:00,24.9,12.2,30.26,WSW,257,2.0,11.0,58,0.00,,CLR,0.00,VWS V13.01,2013-12-13 07:17:00,
2013-12-13 02:22:00,25.2,12.5,30.25,WSW,243,2.0,11.0,58,0.00,,CLR,0.00,VWS V13.01,2013-12-13 07:22:00,
2013-12-13 02:27:00,25.3,12.2,30.26,SW,229,1.0,4.0,57,0.00,,CLR,0.00,VWS V13.01,2013-12-13 07:27:00,
2013-12-13 02:32:00,25.4,12.3,30.26,SW,229,2.0,6.0,57,0.00,,CLR,0.00,VWS V13.01,2013-12-13 07:32:00,
2013-12-13 02:37:00,25.7,12.2,30.25,WSW,245,4.0,6.0,56,0.00,,CLR,0.00,VWS V13.01,2013-12-13 07:37:00,
2013-12-13 02:42:00,25.9,12.4,30.25,SW,228,1.0,3.0,56,0.00,,CLR,0.00,VWS V13.01,2013-12-13 07:42:00,
2013-12-13 02:47:00,25.7,12.2,30.25,WSW,246,1.0,4.0,56,0.00,,CLR,0.00,VWS V13.01,2013-12-13 07:47:00,
2013-12-13 02:52:00,25.7,12.2,30.25,WSW,246,0.0,4.0,56,0.00,,CLR,0.00,VWS V13.01,2013-12-13 07:52:00,
2013-12-13 02:57:00,25.7,12.2,30.25,SSW,199,1.0,1.0,56,0.00,,CLR,0.00,VWS V13.01,2013-12-13 07:57:00,
2013-12-13 03:02:00,25.7,12.2,30.26,SSW,198,0.0,4.0,56,0.00,,CLR,0.00,VWS V13.01,2013-12-13 08:02:00,
2013-12-13 03:08:00,25.9,12.4,30.26,SW,216,3.0,5.0,56,0.00,,CLR,0.00,VWS V13.01,2013-12-13 08:08:00,
2013-12-13 03:13:00,26.2,12.2,30.26,SW,215,2.0,3.0,55,0.00,,CLR,0.00,VWS V13.01,2013-12-13 08:13:00,
2013-12-13 03:18:00,26.6,12.2,30.26,SW,228,1.0,6.0,54,0.00,,CLR,0.00,VWS V13.01,2013-12-13 08:18:00,
2013-12-13 03:23:00,26.6,12.2,30.26,SW,228,2.0,6.0,54,0.00,,CLR,0.00,VWS V13.01,2013-12-13 08:23:00,
2013-12-13 03:28:00,27.0,12.2,30.26,SW,229,3.0,5.0,53,0.00,,CLR,0.00,VWS V13.01,2013-12-13 08:28:00,
2013-12-13 03:33:00,27.4,12.5,30.26,SW,230,1.0,5.0,53,0.00,,CLR,0.00,VWS V13.01,2013-12-13 08:33:00,
2013-12-13 03:38:00,27.4,12.5,30.26,SSW,201,2.0,5.0,53,0.00,,CLR,0.00,VWS V13.01,2013-12-13 08:38:00,
2013-12-13 03:43:00,27.5,12.2,30.26,SW,235,2.0,3.0,52,0.00,,CLR,0.00,VWS V13.01,2013-12-13 08:43:00,
2013-12-13 03:48:00,27.5,12.2,30.26,SSW,200,2.0,3.0,52,0.00,,CLR,0.00,VWS V13.01,2013-12-13 08:48:00,
2013-12-13 03:54:00,27.5,12.2,30.26,SW,236,1.0,3.0,52,0.00,,CLR,0.00,VWS V13.01,2013-12-13 08:54:00,
2013-12-13 03:59:00,27.4,12.1,30.26,SW,236,2.0,2.0,52,0.00,,CLR,0.00,VWS V13.01,2013-12-13 08:59:00,
2013-12-13 04:04:00,27.4,12.1,30.27,SW,236,0.0,2.0,52,0.00,,CLR,0.00,VWS V13.01,2013-12-13 09:04:00,
2013-12-13 04:09:00,27.4,12.1,30.26,South,172,1.0,2.0,52,0.00,,CLR,0.00,VWS V13.01,2013-12-13 09:09:00,
2013-12-13 04:14:00,27.1,12.2,30.26,WSW,238,0.0,2.0,53,0.00,,CLR,0.00,VWS V13.01,2013-12-13 09:14:00,
2013-12-13 04:19:00,27.2,12.4,30.26,SW,218,0.0,3.0,53,0.00,,CLR,0.00,VWS V13.01,2013-12-13 09:19:00,
2013-12-13 04:24:00,27.1,12.2,30.26,West,273,0.0,5.0,53,0.00,,CLR,0.00,VWS V13.01,2013-12-13 09:24:00,
2013-12-13 04:29:00,26.9,12.1,30.26,WSW,245,0.0,2.0,53,0.00,,CLR,0.00,VWS V13.01,2013-12-13 09:29:00,
2013-12-13 04:35:00,26.6,11.8,30.26,WSW,247,0.0,2.0,53,0.00,,CLR,0.00,VWS V13.01,2013-12-13 09:35:00,
2013-12-13 04:40:00,26.4,12.0,30.27,West,272,0.0,5.0,54,0.00,,CLR,0.00,VWS V13.01,2013-12-13 09:40:00,
2013-12-13 04:45:00,26.1,11.7,30.27,West,272,2.0,2.0,54,0.00,,CLR,0.00,VWS V13.01,2013-12-13 09:45:00,
2013-12-13 04:50:00,25.8,11.9,30.27,West,272,0.0,3.0,55,0.00,,CLR,0.00,VWS V13.01,2013-12-13 09:50:00,
2013-12-13 04:55:00,26.0,11.6,30.27,WNW,299,3.0,4.0,54,0.00,,CLR,0.00,VWS V13.01,2013-12-13 09:55:00,
2013-12-13 05:00:00,26.0,11.6,30.28,NW,316,3.0,4.0,54,0.00,,CLR,0.00,VWS V13.01,2013-12-13 10:00:00,
2013-12-13 05:05:00,26.0,12.1,30.28,WNW,300,0.0,4.0,55,0.00,,CLR,0.00,VWS V13.01,2013-12-13 10:05:00,
2013-12-13 05:10:00,25.8,11.9,30.28,WNW,300,0.0,4.0,55,0.00,,CLR,0.00,VWS V13.01,2013-12-13 10:10:00,
2013-12-13 05:16:00,25.7,11.8,30.28,WNW,301,0.0,3.0,55,0.00,,CLR,0.00,VWS V13.01,2013-12-13 10:16:00,
2013-12-13 05:21:00,25.4,11.5,30.28,WNW,301,0.0,3.0,55,0.00,,CLR,0.00,VWS V13.01,2013-12-13 10:21:00,
2013-12-13 05:26:00,25.3,11.4,30.28,WNW,301,2.0,3.0,55,0.00,,CLR,0.00,VWS V13.01,2013-12-13 10:26:00,
2013-12-13 05:31:00,25.4,11.5,30.28,WNW,301,0.0,2.0,55,0.00,,CLR,0.00,VWS V13.01,2013-12-13 10:31:00,
2013-12-13 05:36:00,25.4,11.5,30.28,WNW,301,0.0,2.0,55,0.00,,CLR,0.00,VWS V13.01,2013-12-13 10:36:00,
2013-12-13 05:41:00,25.4,11.5,30.28,WNW,301,0.0,0.0,55,0.00,,CLR,0.00,VWS V13.01,2013-12-13 10:41:00,
2013-12-13 05:47:00,25.3,11.8,30.28,WNW,301,0.0,0.0,56,0.00,,CLR,0.00,VWS V13.01,2013-12-13 10:47:00,
2013-12-13 05:52:00,24.8,11.3,30.28,WNW,301,0.0,1.0,56,0.00,,CLR,0.00,VWS V13.01,2013-12-13 10:52:00,
2013-12-13 05:57:00,24.4,11.4,30.28,WNW,301,1.0,2.0,57,0.00,,CLR,0.00,VWS V13.01,2013-12-13 10:57:00,
2013-12-13 06:02:00,24.2,11.2,30.28,WNW,301,1.0,2.0,57,0.00,,CLR,0.00,VWS V13.01,2013-12-13 11:02:00,
2013-12-13 06:07:00,24.0,11.4,30.29,WNW,301,0.0,2.0,58,0.00,,CLR,0.00,VWS V13.01,2013-12-13 11:07:00,
2013-12-13 06:12:00,24.0,11.4,30.28,WNW,301,1.0,2.0,58,0.00,,CLR,0.00,VWS V13.01,2013-12-13 11:12:00,
2013-12-13 06:17:00,23.9,11.7,30.29,WNW,301,0.0,2.0,59,0.00,,CLR,0.00,VWS V13.01,2013-12-13 11:17:00,
2013-12-13 06:22:00,23.7,11.5,30.29,WNW,301,2.0,3.0,59,0.00,,CLR,0.00,VWS V13.01,2013-12-13 11:22:00,
2013-12-13 06:27:00,23.4,11.6,30.29,WNW,301,0.0,1.0,60,0.00,,CLR,0.00,VWS V13.01,2013-12-13 11:27:00,
2013-12-13 06:32:00,23.1,11.3,30.29,WNW,301,1.0,2.0,60,0.00,,CLR,0.00,VWS V13.01,2013-12-13 11:32:00,
2013-12-13 06:37:00,22.8,11.4,30.29,WNW,301,1.0,2.0,61,0.00,,CLR,0.00,VWS V13.01,2013-12-13 11:37:00,
2013-12-13 06:42:00,22.5,11.5,30.29,WNW,301,0.0,0.0,62,0.00,,CLR,0.00,VWS V13.01,2013-12-13 11:42:00,
2013-12-13 06:47:00,22.2,11.2,30.29,WNW,301,0.0,0.0,62,0.00,,CLR,0.00,VWS V13.01,2013-12-13 11:47:00,
2013-12-13 06:53:00,21.9,11.2,30.29,WNW,301,0.0,0.0,63,0.00,,CLR,0.00,VWS V13.01,2013-12-13 11:53:00,
2013-12-13 06:58:00,21.8,11.2,30.30,West,276,2.0,2.0,63,0.00,,CLR,0.00,VWS V13.01,2013-12-13 11:58:00,
2013-12-13 07:03:00,21.6,11.3,30.30,West,276,2.0,3.0,64,0.00,,CLR,0.00,VWS V13.01,2013-12-13 12:03:00,
2013-12-13 07:08:00,21.7,11.4,30.30,West,276,2.0,3.0,64,0.00,,CLR,0.00,VWS V13.01,2013-12-13 12:08:00,
2013-12-13 07:13:00,21.8,11.2,30.30,West,276,1.0,2.0,63,0.00,,CLR,0.00,VWS V13.01,2013-12-13 12:13:00,
2013-12-13 07:18:00,22.0,11.4,30.31,West,276,2.0,2.0,63,0.00,,CLR,0.00,VWS V13.01,2013-12-13 12:18:00,
2013-12-13 07:23:00,22.1,11.4,30.30,WSW,254,3.0,3.0,63,0.00,,CLR,0.00,VWS V13.01,2013-12-13 12:23:00,
2013-12-13 07:27:00,22.3,11.3,30.31,WSW,254,3.0,3.0,62,0.00,,CLR,0.00,VWS V13.01,2013-12-13 12:27:00,
2013-12-13 07:32:00,22.6,11.2,30.31,SW,223,4.0,4.0,61,0.00,,CLR,0.00,VWS V13.01,2013-12-13 12:32:00,
2013-12-13 07:37:00,23.0,11.2,30.31,SW,223,2.0,4.0,60,0.00,,CLR,0.00,VWS V13.01,2013-12-13 12:37:00,
2013-12-13 07:42:00,23.3,11.5,30.31,SSW,199,2.0,3.0,60,0.00,,CLR,0.00,VWS V13.01,2013-12-13 12:42:00,
2013-12-13 07:47:00,23.9,11.3,30.31,SSW,203,2.0,4.0,58,0.00,,CLR,0.00,VWS V13.01,2013-12-13 12:47:00,
2013-12-13 07:53:00,24.4,11.4,30.31,SSW,203,1.0,4.0,57,0.00,,CLR,0.00,VWS V13.01,2013-12-13 12:53:00,
2013-12-13 07:58:00,24.8,11.3,30.31,SSW,203,2.0,3.0,56,0.00,,CLR,0.00,VWS V13.01,2013-12-13 12:58:00,
2013-12-13 08:03:00,25.3,11.0,30.31,SSW,204,2.0,3.0,54,0.00,,CLR,0.00,VWS V13.01,2013-12-13 13:03:00,
2013-12-13 08:08:00,25.7,11.4,30.31,SSW,205,1.0,3.0,54,0.00,,CLR,0.00,VWS V13.01,2013-12-13 13:08:00,
2013-12-13 08:14:00,25.8,11.0,30.31,SSW,205,1.0,2.0,53,0.00,,CLR,0.00,VWS V13.01,2013-12-13 13:14:00,
2013-12-13 08:19:00,26.0,11.2,30.31,SSW,205,1.0,2.0,53,0.00,,CLR,0.00,VWS V13.01,2013-12-13 13:19:00,
2013-12-13 08:24:00,26.0,11.2,30.31,SSW,205,0.0,2.0,53,0.00,,CLR,0.00,VWS V13.01,2013-12-13 13:24:00,
2013-12-13 08:29:00,26.1,11.3,30.32,SSW,205,0.0,0.0,53,0.00,,CLR,0.00,VWS V13.01,2013-12-13 13:29:00,
2013-12-13 08:34:00,26.2,11.4,30.32,SSW,205,1.0,2.0,53,0.00,,CLR,0.00,VWS V13.01,2013-12-13 13:34:00,
2013-12-13 08:39:00,26.1,11.3,30.32,SSW,205,0.0,2.0,53,0.01,,CLR,0.01,VWS V13.01,2013-12-13 13:39:00,
2013-12-13 08:44:00,26.3,11.5,30.32,SSW,205,0.0,1.0,53,0.01,,CLR,0.01,VWS V13.01,2013-12-13 13:44:00,
2013-12-13 08:50:00,26.6,12.2,30.32,SSW,207,0.0,2.0,54,0.01,,CLR,0.01,VWS V13.01,2013-12-13 13:50:00,
2013-12-13 08:55:00,27.0,12.2,30.32,WSW,244,0.0,2.0,53,0.01,,CLR,0.01,VWS V13.01,2013-12-13 13:55:00,
2013-12-13 09:00:00,27.1,12.2,30.32,WSW,245,2.0,3.0,53,0.01,,CLR,0.01,VWS V13.01,2013-12-13 14:00:00,
2013-12-13 09:06:00,27.3,12.4,30.32,WSW,245,1.0,3.0,53,0.01,,CLR,0.01,VWS V13.01,2013-12-13 14:06:00,
2013-12-13 09:11:00,27.5,12.2,30.32,WSW,244,1.0,3.0,52,0.01,,CLR,0.01,VWS V13.01,2013-12-13 14:11:00,
2013-12-13 09:16:00,28.1,12.8,30.32,WSW,248,3.0,4.0,52,0.01,,CLR,0.01,VWS V13.01,2013-12-13 14:16:00,
2013-12-13 09:21:00,28.4,12.6,30.32,WSW,248,3.0,4.0,51,0.01,,CLR,0.01,VWS V13.01,2013-12-13 14:21:00,
2013-12-13 09:26:00,29.2,12.9,30.32,SW,230,2.0,4.0,50,0.01,,CLR,0.01,VWS V13.01,2013-12-13 14:26:00,
2013-12-13 09:31:00,29.9,13.1,30.32,SW,235,0.0,4.0,49,0.01,,CLR,0.01,VWS V13.01,2013-12-13 14:31:00,
2013-12-13 09:37:00,30.3,13.4,30.32,WSW,240,3.0,5.0,49,0.01,,CLR,0.01,VWS V13.01,2013-12-13 14:37:00,
2013-12-13 09:42:00,30.6,13.7,30.32,WSW,248,2.0,3.0,49,0.01,,CLR,0.01,VWS V13.01,2013-12-13 14:42:00,
2013-12-13 09:47:00,30.9,13.5,30.32,WSW,257,3.0,7.0,48,0.00,,CLR,0.01,VWS V13.01,2013-12-13 14:47:00,
2013-12-13 09:52:00,31.2,14.3,30.32,West,268,2.0,7.0,49,0.00,,CLR,0.01,VWS V13.01,2013-12-13 14:52:00,
2013-12-13 09:57:00,31.6,14.2,30.32,WSW,251,6.0,6.0,48,0.00,,CLR,0.01,VWS V13.01,2013-12-13 14:57:00,
2013-12-13 10:02:00,32.0,14.1,30.32,West,276,5.0,7.0,47,0.00,,CLR,0.01,VWS V13.01,2013-12-13 15:02:00,
2013-12-13 10:07:00,32.5,14.5,30.32,West,271,4.0,9.0,47,0.00,,CLR,0.01,VWS V13.01,2013-12-13 15:07:00,
2013-12-13 10:12:00,32.8,15.3,30.32,WNW,299,6.0,6.0,48,0.00,,CLR,0.01,VWS V13.01,2013-12-13 15:12:00,
2013-12-13 10:17:00,33.0,15.5,30.32,WSW,240,3.0,8.0,48,0.00,,CLR,0.01,VWS V13.01,2013-12-13 15:17:00,
2013-12-13 10:22:00,33.5,15.4,30.32,SW,219,2.0,8.0,47,0.00,,CLR,0.01,VWS V13.01,2013-12-13 15:22:00,
2013-12-13 10:28:00,33.9,15.3,30.32,West,274,1.0,7.0,46,0.00,,CLR,0.01,VWS V13.01,2013-12-13 15:28:00,
2013-12-13 10:33:00,34.3,15.2,30.32,West,276,7.0,10.0,45,0.00,,CLR,0.01,VWS V13.01,2013-12-13 15:33:00,
2013-12-13 10:38:00,34.4,15.8,30.31,WSW,242,5.0,10.0,46,0.00,,CLR,0.01,VWS V13.01,2013-12-13 15:38:00,
2013-12-13 10:43:00,34.7,15.6,30.31,SW,218,3.0,10.0,45,0.00,,CLR,0.01,VWS V13.01,2013-12-13 15:43:00,
2013-12-13 10:48:00,35.0,16.3,30.31,WSW,256,4.0,10.0,46,0.00,,CLR,0.01,VWS V13.01,2013-12-13 15:48:00,
2013-12-13 10:53:00,35.6,16.4,30.31,WSW,239,4.0,10.0,45,0.00,,CLR,0.01,VWS V13.01,2013-12-13 15:53:00,
2013-12-13 10:58:00,35.9,16.6,30.31,NW,304,5.0,12.0,45,0.00,,CLR,0.01,VWS V13.01,2013-12-13 15:58:00,
2013-12-13 11:03:00,36.0,16.7,30.31,West,259,6.0,12.0,45,0.00,,CLR,0.01,VWS V13.01,2013-12-13 16:03:00,
2013-12-13 11:08:00,36.1,17.3,30.30,West,264,5.0,12.0,46,0.00,,CLR,0.01,VWS V13.01,2013-12-13 16:08:00,
2013-12-13 11:13:00,36.4,17.6,30.30,WNW,284,0.0,9.0,46,0.00,,CLR,0.01,VWS V13.01,2013-12-13 16:13:00,
2013-12-13 11:19:00,36.6,17.8,30.30,West,276,5.0,12.0,46,0.00,,CLR,0.01,VWS V13.01,2013-12-13 16:19:00,
2013-12-13 11:24:00,36.8,18.5,30.30,WSW,257,9.0,12.0,47,0.00,,CLR,0.01,VWS V13.01,2013-12-13 16:24:00,
2013-12-13 11:29:00,37.0,17.1,30.29,West,275,6.0,16.0,44,0.00,,CLR,0.01,VWS V13.01,2013-12-13 16:29:00,
2013-12-13 11:34:00,37.0,17.1,30.29,West,281,7.0,16.0,44,0.00,,CLR,0.01,VWS V13.01,2013-12-13 16:34:00,
2013-12-13 11:40:00,37.0,17.6,30.29,West,277,10.0,16.0,45,0.00,,CLR,0.01,VWS V13.01,2013-12-13 16:40:00,
2013-12-13 11:45:00,37.3,17.9,30.28,NW,311,5.0,13.0,45,0.00,,CLR,0.01,VWS V13.01,2013-12-13 16:45:00,
2013-12-13 11:50:00,37.5,17.6,30.28,WNW,301,15.0,16.0,44,0.00,,CLR,0.01,VWS V13.01,2013-12-13 16:50:00,
2013-12-13 11:55:00,37.9,18.0,30.28,West,269,7.0,16.0,44,0.00,,CLR,0.01,VWS V13.01,2013-12-13 16:55:00,
2013-12-13 12:00:00,38.0,18.0,30.28,West,272,10.0,16.0,44,0.00,,CLR,0.01,VWS V13.01,2013-12-13 17:00:00,
2013-12-13 12:05:00,38.0,18.0,30.28,WNW,293,13.0,16.0,44,0.00,,CLR,0.01,VWS V13.01,2013-12-13 17:05:00,
2013-12-13 12:10:00,38.1,18.1,30.28,WNW,293,9.0,16.0,44,0.00,,CLR,0.01,VWS V13.01,2013-12-13 17:10:00,
2013-12-13 12:15:00,38.5,19.0,30.27,West,259,7.0,16.0,45,0.00,,CLR,0.01,VWS V13.01,2013-12-13 17:15:00,
2013-12-13 12:21:00,38.7,18.1,30.27,West,270,4.0,16.0,43,0.00,,CLR,0.01,VWS V13.01,2013-12-13 17:21:00,
2013-12-13 12:26:00,38.8,18.8,30.27,WSW,258,3.0,16.0,44,0.00,,CLR,0.01,VWS V13.01,2013-12-13 17:26:00,
2013-12-13 12:31:00,39.0,18.4,30.27,West,274,6.0,12.0,43,0.00,,CLR,0.01,VWS V13.01,2013-12-13 17:31:00,
2013-12-13 12:36:00,39.3,19.2,30.27,West,262,3.0,16.0,44,0.00,,CLR,0.01,VWS V13.01,2013-12-13 17:36:00,
2013-12-13 12:41:00,39.3,18.7,30.27,WNW,297,6.0,16.0,43,0.00,,CLR,0.01,VWS V13.01,2013-12-13 17:41:00,
2013-12-13 12:46:00,39.5,18.9,30.26,WNW,297,5.0,12.0,43,0.00,,CLR,0.01,VWS V13.01,2013-12-13 17:46:00,
2013-12-13 12:51:00,39.7,19.0,30.26,West,264,4.0,14.0,43,0.00,,CLR,0.01,VWS V13.01,2013-12-13 17:51:00,
2013-12-13 12:56:00,40.1,20.5,30.26,WNW,283,4.0,14.0,45,0.00,,CLR,0.01,VWS V13.01,2013-12-13 17:56:00,
2013-12-13 13:01:00,40.1,20.0,30.25,WNW,289,4.0,13.0,44,0.00,,CLR,0.01,VWS V13.01,2013-12-13 18:01:00,
2013-12-13 13:06:00,40.5,20.3,30.25,SW,228,10.0,15.0,44,0.00,,CLR,0.01,VWS V13.01,2013-12-13 18:06:00,
2013-12-13 13:11:00,40.2,19.5,30.25,NW,306,5.0,15.0,43,0.00,,CLR,0.01,VWS V13.01,2013-12-13 18:11:00,
2013-12-13 13:16:00,40.8,20.6,30.25,WSW,253,9.0,10.0,44,0.00,,CLR,0.01,VWS V13.01,2013-12-13 18:16:00,
2013-12-13 13:22:00,41.1,20.3,30.25,NW,305,4.0,10.0,43,0.00,,CLR,0.01,VWS V13.01,2013-12-13 18:22:00,
2013-12-13 13:27:00,41.7,20.9,30.24,WSW,257,3.0,5.0,43,0.00,,CLR,0.01,VWS V13.01,2013-12-13 18:27:00,
2013-12-13 13:32:00,41.8,20.4,30.24,West,262,4.0,9.0,42,0.00,,CLR,0.01,VWS V13.01,2013-12-13 18:32:00,
2013-12-13 13:37:00,42.1,21.8,30.24,West,277,3.0,9.0,44,0.00,,CLR,0.01,VWS V13.01,2013-12-13 18:37:00,
2013-12-13 13:42:00,42.5,21.0,30.24,West,270,4.0,7.0,42,0.00,,CLR,0.01,VWS V13.01,2013-12-13 18:42:00,
2013-12-13 13:47:00,41.7,20.9,30.24,NW,311,4.0,12.0,43,0.00,,CLR,0.01,VWS V13.01,2013-12-13 18:47:00,
2013-12-13 13:52:00,41.7,21.4,30.24,NNW,345,5.0,12.0,44,0.00,,CLR,0.01,VWS V13.01,2013-12-13 18:52:00,
2013-12-13 13:57:00,41.2,20.4,30.23,WNW,299,9.0,13.0,43,0.00,,CLR,0.01,VWS V13.01,2013-12-13 18:57:00,
2013-12-13 14:02:00,41.2,21.0,30.24,NW,307,4.0,13.0,44,0.00,,CLR,0.01,VWS V13.01,2013-12-13 19:02:00,
2013-12-13 14:07:00,41.9,21.6,30.23,West,276,4.0,13.0,44,0.00,,CLR,0.01,VWS V13.01,2013-12-13 19:07:00,
2013-12-13 14:12:00,42.1,21.2,30.23,NNW,338,5.0,12.0,43,0.00,,CLR,0.01,VWS V13.01,2013-12-13 19:12:00,
2013-12-13 14:18:00,41.9,21.0,30.23,West,262,1.0,12.0,43,0.01,,CLR,0.02,VWS V13.01,2013-12-13 19:18:00,
2013-12-13 14:23:00,42.0,21.7,30.23,WSW,256,3.0,13.0,44,0.01,,CLR,0.02,VWS V13.01,2013-12-13 19:23:00,
2013-12-13 14:28:00,41.9,21.0,30.23,NNW,343,4.0,9.0,43,0.01,,CLR,0.02,VWS V13.01,2013-12-13 19:28:00,
2013-12-13 14:33:00,42.2,21.9,30.23,NNW,340,9.0,12.0,44,0.01,,CLR,0.02,VWS V13.01,2013-12-13 19:33:00,
2013-12-13 14:38:00,41.9,21.0,30.23,NW,304,9.0,16.0,43,0.01,,CLR,0.02,VWS V13.01,2013-12-13 19:38:00,
2013-12-13 14:43:00,41.8,21.0,30.23,WNW,288,4.0,12.0,43,0.01,,CLR,0.02,VWS V13.01,2013-12-13 19:43:00,
2013-12-13 14:48:00,42.3,22.0,30.23,NW,305,5.0,12.0,44,0.01,,CLR,0.02,VWS V13.01,2013-12-13 19:48:00,
2013-12-13 14:53:00,42.0,21.7,30.23,NW,310,5.0,13.0,44,0.01,,CLR,0.02,VWS V13.01,2013-12-13 19:53:00,
2013-12-13 14:59:00,42.0,21.7,30.23,NW,320,3.0,10.0,44,0.01,,CLR,0.02,VWS V13.01,2013-12-13 19:59:00,
2013-12-13 15:04:00,42.4,22.0,30.23,WSW,257,4.0,10.0,44,0.01,,CLR,0.02,VWS V13.01,2013-12-13 20:04:00,
2013-12-13 15:09:00,42.6,21.7,30.23,West,260,6.0,11.0,43,0.01,,CLR,0.02,VWS V13.01,2013-12-13 20:09:00,
2013-12-13 15:14:00,42.6,22.2,30.23,West,269,2.0,9.0,44,0.01,,CLR,0.02,VWS V13.01,2013-12-13 20:14:00,
2013-12-13 15:19:00,43.0,22.0,30.23,WNW,292,4.0,9.0,43,0.01,,CLR,0.02,VWS V13.01,2013-12-13 20:19:00,
2013-12-13 15:24:00,42.6,21.7,30.22,West,268,3.0,9.0,43,0.01,,CLR,0.02,VWS V13.01,2013-12-13 20:24:00,
2013-12-13 15:29:00,43.1,22.7,30.22,WNW,295,3.0,4.0,44,0.00,,CLR,0.02,VWS V13.01,2013-12-13 20:29:00,
2013-12-13 15:34:00,43.1,22.1,30.23,WNW,302,5.0,6.0,43,0.00,,CLR,0.02,VWS V13.01,2013-12-13 20:34:00,
2013-12-13 15:39:00,42.5,21.6,30.23,NW,308,9.0,11.0,43,0.00,,CLR,0.02,VWS V13.01,2013-12-13 20:39:00,
2013-12-13 15:44:00,42.2,21.3,30.23,WNW,286,5.0,10.0,43,0.00,,CLR,0.02,VWS V13.01,2013-12-13 20:44:00,
2013-12-13 15:50:00,42.4,22.0,30.23,West,262,3.0,10.0,44,0.00,,CLR,0.02,VWS V13.01,2013-12-13 20:50:00,
2013-12-13 15:55:00,42.3,22.0,30.23,NW,305,3.0,10.0,44,0.00,,CLR,0.02,VWS V13.01,2013-12-13 20:55:00,
2013-12-13 16:00:00,42.3,22.5,30.24,WNW,289,3.0,5.0,45,0.00,,CLR,0.02,VWS V13.01,2013-12-13 21:00:00,
2013-12-13 16:05:00,42.1,21.8,30.24,NW,312,2.0,8.0,44,0.00,,CLR,0.02,VWS V13.01,2013-12-13 21:05:00,
2013-12-13 16:10:00,41.8,22.0,30.24,WNW,289,3.0,8.0,45,0.00,,CLR,0.02,VWS V13.01,2013-12-13 21:10:00,
2013-12-13 16:15:00,41.6,21.9,30.24,NW,325,3.0,6.0,45,0.00,,CLR,0.02,VWS V13.01,2013-12-13 21:15:00,
2013-12-13 16:20:00,41.5,21.8,30.24,NW,306,2.0,6.0,45,0.00,,CLR,0.02,VWS V13.01,2013-12-13 21:20:00,
2013-12-13 16:25:00,41.4,21.7,30.25,NW,310,1.0,6.0,45,0.00,,CLR,0.02,VWS V13.01,2013-12-13 21:25:00,
2013-12-13 16:30:00,41.2,22.0,30.25,NW,310,1.0,2.0,46,0.00,,CLR,0.02,VWS V13.01,2013-12-13 21:30:00,
2013-12-13 16:36:00,40.9,21.7,30.25,West,278,0.0,3.0,46,0.00,,CLR,0.02,VWS V13.01,2013-12-13 21:36:00,
2013-12-13 16:41:00,40.6,22.0,30.26,West,278,0.0,3.0,47,0.00,,CLR,0.02,VWS V13.01,2013-12-13 21:41:00,
2013-12-13 16:46:00,40.2,21.1,30.26,West,278,0.0,2.0,46,0.00,,CLR,0.02,VWS V13.01,2013-12-13 21:46:00,
2013-12-13 16:51:00,39.8,21.2,30.26,West,278,0.0,2.0,47,0.00,,CLR,0.02,VWS V13.01,2013-12-13 21:51:00,
2013-12-13 16:56:00,39.5,21.0,30.26,West,278,0.0,2.0,47,0.00,,CLR,0.02,VWS V13.01,2013-12-13 21:56:00,
2013-12-13 17:01:00,39.2,20.7,30.27,West,278,2.0,2.0,47,0.00,,CLR,0.02,VWS V13.01,2013-12-13 22:01:00,
2013-12-13 17:06:00,38.8,20.8,30.27,West,278,0.0,2.0,48,0.00,,CLR,0.02,VWS V13.01,2013-12-13 22:06:00,
2013-12-13 17:11:00,38.4,20.4,30.27,WSW,257,1.0,3.0,48,0.00,,CLR,0.02,VWS V13.01,2013-12-13 22:11:00,
2013-12-13 17:16:00,38.3,20.4,30.28,WSW,257,0.0,2.0,48,0.00,,CLR,0.02,VWS V13.01,2013-12-13 22:16:00,
2013-12-13 17:22:00,38.2,20.7,30.28,WSW,257,0.0,2.0,49,0.00,,CLR,0.02,VWS V13.01,2013-12-13 22:22:00,
2013-12-13 17:27:00,38.1,21.1,30.28,WSW,257,0.0,0.0,50,0.00,,CLR,0.02,VWS V13.01,2013-12-13 22:27:00,
2013-12-13 17:32:00,38.0,20.5,30.29,West,259,1.0,2.0,49,0.00,,CLR,0.02,VWS V13.01,2013-12-13 22:32:00,
2013-12-13 17:37:00,38.0,21.0,30.28,West,278,0.0,3.0,50,0.00,,CLR,0.02,VWS V13.01,2013-12-13 22:37:00,
2013-12-13 17:42:00,37.9,20.9,30.28,West,280,1.0,3.0,50,0.00,,CLR,0.02,VWS V13.01,2013-12-13 22:42:00,
2013-12-13 17:47:00,38.0,21.0,30.28,NW,307,1.0,3.0,50,0.00,,CLR,0.02,VWS V13.01,2013-12-13 22:47:00,
2013-12-13 17:53:00,37.8,20.8,30.28,NW,307,0.0,3.0,50,0.00,,CLR,0.02,VWS V13.01,2013-12-13 22:53:00,
2013-12-13 17:58:00,37.5,20.6,30.29,NW,307,3.0,3.0,50,0.00,,CLR,0.02,VWS V13.01,2013-12-13 22:58:00,
2013-12-13 18:03:00,36.8,19.9,30.29,NW,307,2.0,3.0,50,0.00,,CLR,0.02,VWS V13.01,2013-12-13 23:03:00,
2013-12-13 18:08:00,36.2,20.3,30.29,West,272,0.0,3.0,52,0.00,,CLR,0.02,VWS V13.01,2013-12-13 23:08:00,
2013-12-13 18:13:00,36.5,20.6,30.29,West,272,2.0,4.0,52,0.00,,CLR,0.02,VWS V13.01,2013-12-13 23:13:00,
2013-12-13 18:18:00,36.8,20.8,30.29,NW,311,3.0,4.0,52,0.00,,CLR,0.02,VWS V13.01,2013-12-13 23:18:00,
2013-12-13 18:23:00,36.5,21.0,30.29,NW,316,0.0,4.0,53,0.00,,CLR,0.02,VWS V13.01,2013-12-13 23:23:00,
2013-12-13 18:29:00,34.4,20.3,30.29,WSW,248,1.0,3.0,56,0.00,,CLR,0.02,VWS V13.01,2013-12-13 23:29:00,
2013-12-13 18:34:00,34.3,20.2,30.30,SSW,203,2.0,5.0,56,0.00,,CLR,0.02,VWS V13.01,2013-12-13 23:34:00,
2013-12-13 18:39:00,35.2,20.7,30.30,SSW,203,0.0,5.0,55,0.00,,CLR,0.02,VWS V13.01,2013-12-13 23:39:00,
2013-12-13 18:44:00,35.6,20.6,30.30,SSW,203,0.0,0.0,54,0.00,,CLR,0.02,VWS V13.01,2013-12-13 23:44:00,
2013-12-13 18:49:00,35.8,20.8,30.30,SSW,203,0.0,1.0,54,0.00,,CLR,0.02,VWS V13.01,2013-12-13 23:49:00,
2013-12-13 18:54:00,35.3,20.8,30.30,SW,224,0.0,2.0,55,0.00,,CLR,0.02,VWS V13.01,2013-12-13 23:54:00,
2013-12-13 19:00:00,34.4,20.3,30.30,SW,224,0.0,0.0,56,0.00,,CLR,0.02,VWS V13.01,2013-12-14 00:00:00,
2013-12-13 19:05:00,33.3,20.9,30.30,SW,224,0.0,1.0,60,0.00,,CLR,0.02,VWS V13.01,2013-12-14 00:05:00,
2013-12-13 19:10:00,32.3,20.8,30.30,SW,224,2.0,3.0,62,0.00,,CLR,0.02,VWS V13.01,2013-12-14 00:10:00,
2013-12-13 19:15:00,32.0,20.9,30.30,SW,224,1.0,2.0,63,0.00,,CLR,0.02,VWS V13.01,2013-12-14 00:15:00,
2013-12-13 19:20:00,32.0,20.9,30.30,SW,224,0.0,2.0,63,0.00,,CLR,0.02,VWS V13.01,2013-12-14 00:20:00,
2013-12-13 19:25:00,31.9,20.8,30.29,SW,224,0.0,2.0,63,0.00,,CLR,0.02,VWS V13.01,2013-12-14 00:25:00,
2013-12-13 19:30:00,31.8,21.0,30.30,SW,224,0.0,0.0,64,0.00,,CLR,0.02,VWS V13.01,2013-12-14 00:30:00,
2013-12-13 19:36:00,31.5,21.1,30.30,SW,224,1.0,2.0,65,0.00,,CLR,0.02,VWS V13.01,2013-12-14 00:36:00,
2013-12-13 19:41:00,31.2,20.8,30.30,SW,224,0.0,2.0,65,0.00,,CLR,0.02,VWS V13.01,2013-12-14 00:41:00,
2013-12-13 19:46:00,31.1,21.1,30.30,SW,224,0.0,0.0,66,0.00,,CLR,0.02,VWS V13.01,2013-12-14 00:46:00,
2013-12-13 19:51:00,31.2,21.2,30.31,SW,224,0.0,0.0,66,0.00,,CLR,0.02,VWS V13.01,2013-12-14 00:51:00,
2013-12-13 19:56:00,31.1,21.4,30.31,SW,225,1.0,3.0,67,0.00,,CLR,0.02,VWS V13.01,2013-12-14 00:56:00,
2013-12-13 20:01:00,31.1,21.4,30.31,SW,225,1.0,2.0,67,0.00,,CLR,0.02,VWS V13.01,2013-12-14 01:01:00,
2013-12-13 20:06:00,31.2,21.5,30.31,SW,225,0.0,2.0,67,0.00,,CLR,0.02,VWS V13.01,2013-12-14 01:06:00,
2013-12-13 20:12:00,31.2,21.9,30.31,SW,225,0.0,0.0,68,0.00,,CLR,0.02,VWS V13.01,2013-12-14 01:12:00,
2013-12-13 20:13:00,31.1,21.8,30.31,SW,225,0.0,0.0,68,0.00,,CLR,0.02,VWS V13.01,2013-12-14 01:13:00,
2013-12-13 20:18:00,31.2,21.5,30.30,SW,225,1.0,3.0,67,0.00,,CLR,0.02,VWS V13.01,2013-12-14 01:18:00,
2013-12-13 20:23:00,31.2,21.5,30.30,SW,225,1.0,3.0,67,0.00,,CLR,0.02,VWS V13.01,2013-12-14 01:23:00,
2013-12-13 20:29:00,31.5,21.8,30.30,SW,225,0.0,1.0,67,0.00,,CLR,0.02,VWS V13.01,2013-12-14 01:29:00,
2013-12-13 20:34:00,31.3,22.0,30.31,SW,225,1.0,2.0,68,0.00,,CLR,0.02,VWS V13.01,2013-12-14 01:34:00,
2013-12-13 20:39:00,30.9,21.6,30.31,SW,225,0.0,2.0,68,0.00,,CLR,0.02,VWS V13.01,2013-12-14 01:39:00,
2013-12-13 20:44:00,31.0,21.7,30.31,SW,225,1.0,2.0,68,0.00,,CLR,0.02,VWS V13.01,2013-12-14 01:44:00,
2013-12-13 20:49:00,31.2,21.9,30.31,SW,225,0.0,2.0,68,0.00,,CLR,0.02,VWS V13.01,2013-12-14 01:49:00,
2013-12-13 20:54:00,31.2,21.9,30.31,SW,225,2.0,3.0,68,0.00,,CLR,0.02,VWS V13.01,2013-12-14 01:54:00,
2013-12-13 20:59:00,30.8,22.2,30.31,SW,226,2.0,2.0,70,0.00,,CLR,0.02,VWS V13.01,2013-12-14 01:59:00,
2013-12-13 21:05:00,31.2,22.6,30.31,SW,226,2.0,2.0,70,0.00,,CLR,0.02,VWS V13.01,2013-12-14 02:05:00,
2013-12-13 21:10:00,31.5,22.5,30.31,SW,226,0.0,2.0,69,0.00,,CLR,0.02,VWS V13.01,2013-12-14 02:10:00,
2013-12-13 21:15:00,31.7,22.4,30.32,SW,226,1.0,2.0,68,0.00,,CLR,0.02,VWS V13.01,2013-12-14 02:15:00,
2013-12-13 21:20:00,32.0,21.9,30.32,SW,226,0.0,2.0,66,0.00,,CLR,0.02,VWS V13.01,2013-12-14 02:20:00,
2013-12-13 21:25:00,32.0,21.9,30.32,SW,226,2.0,3.0,66,0.00,,CLR,0.02,VWS V13.01,2013-12-14 02:25:00,
2013-12-13 21:30:00,31.8,21.8,30.32,WSW,242,0.0,3.0,66,0.00,,CLR,0.02,VWS V13.01,2013-12-14 02:30:00,
2013-12-13 21:35:00,31.6,21.9,30.32,WSW,242,2.0,3.0,67,0.00,,CLR,0.02,VWS V13.01,2013-12-14 02:35:00,
2013-12-13 21:41:00,31.7,22.4,30.32,WSW,242,0.0,3.0,68,0.00,,CLR,0.02,VWS V13.01,2013-12-14 02:41:00,
2013-12-13 21:46:00,31.7,22.0,30.32,WSW,242,0.0,0.0,67,0.00,,CLR,0.02,VWS V13.01,2013-12-14 02:46:00,
2013-12-13 21:51:00,31.7,22.4,30.32,WSW,242,0.0,2.0,68,0.00,,CLR,0.02,VWS V13.01,2013-12-14 02:51:00,
2013-12-13 21:56:00,31.5,22.2,30.32,WSW,242,0.0,2.0,68,0.00,,CLR,0.02,VWS V13.01,2013-12-14 02:56:00,
2013-12-13 22:01:00,31.5,22.5,30.31,WSW,242,0.0,0.0,69,0.00,,CLR,0.02,VWS V13.01,2013-12-14 03:01:00,
2013-12-13 22:06:00,31.5,22.5,30.32,WSW,242,0.0,0.0,69,0.00,,CLR,0.02,VWS V13.01,2013-12-14 03:06:00,
2013-12-13 22:11:00,31.4,22.4,30.32,WSW,242,1.0,2.0,69,0.00,,CLR,0.02,VWS V13.01,2013-12-14 03:11:00,
2013-12-13 22:16:00,31.3,22.3,30.32,WSW,242,0.0,2.0,69,0.00,,CLR,0.02,VWS V13.01,2013-12-14 03:16:00,
2013-12-13 22:21:00,31.2,22.6,30.32,WSW,242,0.0,2.0,70,0.00,,CLR,0.02,VWS V13.01,2013-12-14 03:21:00,
2013-12-13 22:26:00,31.0,22.7,30.32,WSW,242,0.0,2.0,71,0.00,,CLR,0.02,VWS V13.01,2013-12-14 03:26:00,
2013-12-13 22:31:00,30.7,22.4,30.32,WSW,242,2.0,2.0,71,0.00,,CLR,0.02,VWS V13.01,2013-12-14 03:31:00,
2013-12-13 22:36:00,30.8,22.5,30.32,WSW,242,1.0,3.0,71,0.00,,CLR,0.02,VWS V13.01,2013-12-14 03:36:00,
2013-12-13 22:41:00,31.0,22.4,30.32,WSW,242,0.0,3.0,70,0.00,,CLR,0.02,VWS V13.01,2013-12-14 03:41:00,
2013-12-13 22:46:00,30.9,22.6,30.32,WSW,242,0.0,0.0,71,0.00,,CLR,0.02,VWS V13.01,2013-12-14 03:46:00,
2013-12-13 22:52:00,30.8,22.9,30.32,WSW,242,0.0,0.0,72,0.00,,CLR,0.02,VWS V13.01,2013-12-14 03:52:00,
2013-12-13 22:57:00,30.4,22.5,30.32,WSW,242,0.0,0.0,72,0.00,,CLR,0.02,VWS V13.01,2013-12-14 03:57:00,
2013-12-13 23:02:00,30.4,22.8,30.32,WSW,242,0.0,0.0,73,0.00,,CLR,0.02,VWS V13.01,2013-12-14 04:02:00,
2013-12-13 23:07:00,30.6,22.7,30.32,WSW,242,0.0,0.0,72,0.00,,CLR,0.02,VWS V13.01,2013-12-14 04:07:00,
2013-12-13 23:12:00,30.8,22.9,30.32,WSW,242,0.0,0.0,72,0.00,,CLR,0.02,VWS V13.01,2013-12-14 04:12:00,
2013-12-13 23:17:00,31.0,22.7,30.32,WSW,242,0.0,1.0,71,0.00,,CLR,0.02,VWS V13.01,2013-12-14 04:17:00,
2013-12-13 23:22:00,31.1,23.1,30.32,WSW,242,0.0,1.0,72,0.00,,CLR,0.02,VWS V13.01,2013-12-14 04:22:00,
2013-12-13 23:27:00,31.1,22.8,30.32,WSW,242,0.0,0.0,71,0.00,,CLR,0.02,VWS V13.01,2013-12-14 04:27:00,
2013-12-13 23:33:00,31.4,22.4,30.32,WSW,242,0.0,2.0,69,0.00,,CLR,0.02,VWS V13.01,2013-12-14 04:33:00,
2013-12-13 23:39:00,31.5,22.5,30.32,WSW,242,0.0,2.0,69,0.00,,CLR,0.02,VWS V13.01,2013-12-14 04:39:00,
2013-12-13 23:44:00,31.6,22.6,30.32,WSW,242,0.0,0.0,69,0.00,,CLR,0.02,VWS V13.01,2013-12-14 04:44:00,
2013-12-13 23:49:00,31.7,22.4,30.32,WSW,242,0.0,0.0,68,0.00,,CLR,0.02,VWS V13.01,2013-12-14 04:49:00,
2013-12-13 23:54:00,31.5,22.9,30.32,WSW,242,0.0,0.0,70,0.00,,CLR,0.02,VWS V13.01,2013-12-14 04:54:00,
2013-12-13 23:59:00,31.2,23.2,30.32,WSW,242,0.0,2.0,72,0.00,,CLR,0.00,VWS V13.01,2013-12-14 04:59:00,